Location: Elstree
(51.6403°N, 0.2969°W)
Time: 19:13:50
(UTC+00:00)

FALCON 9 DEB - Pass Details

Date: 03 March 2021
Orbit: 371 x 387 km, 53.0° (Epoch: 17 April)

Event Time Altitude Azimuth Distance (km) Brightness Sun altitude
Rises 19:07:41 0° 276° (W) 2,302 8.9 -13.6°
Reaches altitude 10° 19:09:46 10° 280° (W) 1,444 7.2 -13.9°
Maximum altitude 19:12:59 67° 3° (N) 436 3.1 -14.4°
Enters shadow 19:14:20 31° 78° (ENE) 722 3.7 -14.6°
